Regional Weather Roundup
Issued by NWS

Home | Current Version | Previous Version | Graphics & Text | Print | Product List | Glossary On
Versions: 1 2 3 4 5 6 7 8 9 10 11 12 13 14 15 16 17 18 19 20 21 22 23 24 25 26 27 28 29 30 31 32 33 34 35 36 37 38 39 40 41 42 43 44 45 46 47 48 49 50
000
ASUS43 KDTX 230301
RWRMI
MICHIGAN HOURLY REGIONAL WEATHER ROUNDUP
NATIONAL WEATHER SERVICE DETROIT/PONTIAC MI
1100 PM EDT TUE APR 22 2014

NOTE: "FAIR" INDICATES FEW OR NO CLOUDS BELOW 12,000 FEET WITH NO
SIGNIFICANT WEATHER AND/OR OBSTRUCTION TO VISIBILITY.

MIZ047>049-052>055-059>063-066>070-074>076-081>083-230400-
SOUTHEAST LOWER MICHIGAN

CITY           SKY/WX    TMP DP  RH WIND       PRES   REMARKS
ADRIAN         MOCLDY    43  29  57 N9        29.95R
ALMA           CLEAR     37  27  67 NW17G23   29.98R WCI  27
ANN ARBOR      PTCLDY    42  28  57 NW8       29.93S
BAD AXE        CLOUDY    37  32  79 NW12      29.92R WCI  30
CARO           CLOUDY    40  33  77 NW16G22   29.93S WCI  31
DETROIT CITY   CLOUDY    45  30  55 NW14      29.92R
DETROIT        MOCLDY    43  30  60 NW9       29.93R
FLINT          CLOUDY    41  29  62 NW12      29.95R
GROSSE ILE     CLOUDY    45  30  57 NW16      29.91S
HILLSDALE      CLOUDY    43  28  56 NW13      29.94S
HOWELL         PTCLDY    38  29  68 NW7       29.94R WCI  33

CITY           SKY/WX    TMP DP  RH WIND       PRES   REMARKS
JACKSON        PTCLDY    41  27  57 N7G21     29.95R
LAMBERTVILLE   PTCLDY    45  30  57 NW10      29.95R
LANSING        CLEAR     39  26  59 NW16G23   29.97R WCI  30
LAPEER         CLOUDY    38  31  76 NW14      29.93R WCI  29
MASON          CLEAR     40  28  64 NW15G21   29.95R WCI  31
MONROE         MOCLDY    45  30  57 NW8G17    29.92S
MT. CLEMENS    CLOUDY    41  31  68 NW12G23   29.90R
PONTIAC        CLOUDY    40  29  64 NW16G26   29.91R WCI  31
PORT HOPE        N/A     39  34  82 NW14G24   29.89R WCI  31
PORT HURON     CLOUDY    39  34  81 NW9G17    29.90S WCI  33
TRI CITIES     CLOUDY    38  28  67 NW17      29.97R WCI  28
TROY           CLOUDY    42  30  62 NW6G20    29.92S
SAGINAW HB     CLOUDY    37  30  75 NW12G18   29.96R WCI  30
YPSILANTI      PTCLDY    45  29  53 NW14G25   29.93S
$$
MIZ043>046-050>051-056>058-064>065-071>073-077>080-230400-
SOUTHWEST LOWER MICHIGAN

CITY           SKY/WX    TMP DP  RH WIND       PRES   REMARKS
BATTLE CREEK   PTCLDY    41  26  55 NW12      29.98R
BENTON HARBOR  CLEAR     39  29  67 VRB7      30.04R WCI  34
BIG RAPIDS     CLOUDY    36  26  68 N15G22    30.00R WCI  26
COLDWATER      CLEAR     39  28  64 N9        29.97R WCI  33
FREMONT        FAIR      37  26  66 N12       30.03R WCI  29
HOLLAND        CLEAR     42  27  55 VRB6G17   30.04R
GRAND RAPIDS   PTCLDY    41  26  55 NW15      30.00R
IONIA          FAIR      39  27  62 NW10G17   29.98R WCI  32
KALAMAZOO      CLEAR     41  26  55 N12G22    30.00R
LUDINGTON      PTCLDY    35  27  74 N13G22    30.07R WCI  26
MARSHALL       CLEAR     40  26  58 NW6       29.96S
MOUNT PLEASANT CLOUDY    37  28  71 NW14      29.98R WCI  28
MUSKEGON       CLEAR     39  27  62 N15       30.05R WCI  31
SOUTH HAVEN    CLEAR     41  27  57 N9        30.03R
$$
MIZ016>042-230400-
NORTHERN LOWER MICHIGAN

CITY           SKY/WX    TMP DP  RH WIND       PRES   REMARKS
ALPENA         FLURRIES  36  30  79 NW14      29.94R WCI  27
BEAVER ISLAND  CLEAR     32  28  85 NW7       30.03R WCI  26
BELLAIRE       CLOUDY    35  29  80 CALM      30.02S
CADILLAC       MOCLDY    32  27  82 NW15      29.98S WCI  21
CHARLEVOIX     CLOUDY    34  30  84 NW10      30.04S WCI  26
FRANKFORT      CLOUDY    35  28  75 N8        30.06R WCI  28
GAYLORD        CLOUDY    31  28  89 VRB7G17   29.96R WCI  24
GRAYLING       CLOUDY    33  28  83 NW9G20    29.98S WCI  25
HARBOR SPRINGS CLOUDY    36  29  76 NW5       29.99S WCI  32
HOUGHTON LAKE  CLOUDY    33  28  81 NW14      29.97R WCI  23
MANISTEE       CLOUDY    36  25  64 N15       30.07R WCI  26
OSCODA         CLOUDY    39  30  72 NW9       29.92R WCI  32
PELLSTON       CLOUDY    34  28  79 NW13      30.00R WCI  25
ROGERS CITY    CLOUDY    36  31  83 NW10G17   29.96R WCI  28
TRAVERSE CITY  CLOUDY    35  27  72 N9        30.03R WCI  28
$$
MIZ007>008-015-230400-
EASTERN UPPER MICHIGAN

CITY           SKY/WX    TMP DP  RH WIND       PRES   REMARKS
KINROSS        PTCLDY    34  30  86 NW14      29.97S WCI  24
MACKINAC ISLAN PTCLDY    33  28  82 N10G17    29.97S WCI  25
NEWBERRY       CLEAR     31  28  86 NW6       30.02R WCI  26
S. S. MARIE    CLEAR     35  27  72 NW8       29.97R WCI  29
$$
MIZ004>006-011>014-085-230400-
CENTRAL UPPER MICHIGAN

CITY           SKY/WX    TMP DP  RH WIND       PRES   REMARKS
MANISTIQUE     MOCLDY    32  27  81 NW8       30.04S WCI  25
ESCANABA       CLEAR     34  23  64 NW6       30.08R WCI  29
MENOMINEE      CLEAR     37  25  60 N6        30.08R WCI  33
SAWYER-GWINN   CLEAR     29  25  84 N7        30.06S WCI  22
$$
MIZ001>003-009>011-084-230400-
WESTERN UPPER MICHIGAN

CITY           SKY/WX    TMP DP  RH WIND       PRES   REMARKS
IRON MOUNTAIN  CLEAR     30  22  72 CALM      30.08R
HOUGHTON       CLEAR     28  23  81 NW6       30.09R WCI  22
COPPER HARBOR    N/A     31  25  78 CALM      30.10R
IRONWOOD       CLEAR     34  25  69 CALM      30.05F
$$

ABBREVIATIONS USED IN REMARKS
   TC - TEMPERATURE IN CELSIUS
  WCI - WIND CHILL INDEX
   HX - HEAT INDEX
  VSB - VISIBILITY




USA.gov is the U.S. government's official web portal to all federal, state and local government web resources and services.